Kezdőlap
METAR-TAF:

METAR-TAF

Repülőterek :

Harlan Municipal Airport

Harlan, Iowa, Amerikai Egyesült Államok

földrajzi szélesség: 41-35-04N, földrajzi hosszúság: 095-20-23W, magasság: 375 m

Jelenlegi meteorológiai megfigyelések

A jelentés 21 perccel ezelõtt készült, 10:15 UTC
Déli szél 4 kt
Hőmérséklet -9°C
Páratartalom 92%
Légköri nyomás 1022 hPa
Látótávolság: 16.1 km
Derült ég

METAR: KHNR 201015Z AUTO 19004KT 10SM CLR M09/M10 A3017 RMK AO2

Idő: 04:36 (10:36 UTC)


TAF: hiányzik

Meteorológiai megfigyelések és előrejelzések több, mint 4000 repülőtéren (METAR és TAF jelentéseket).

A térképen piros és sárga pontok jelzik az elérhető meteorológiai állomásokat.

Mozgassa az egeret a pont fölött, hogy megjelenjen az állomás neve.

Azután kattintson az időjárási megfigyelések és előrejelzések megtekintéséhez.

A térkép megváltoztatása: kattintson a fekete keresztel jelölt zöld gombra ráközelítéshez, a vonallal jelölt zöld gombra távolításhoz, vagy a zöld nyilakra a szomszédos térképek eléréséhez.


METAR-TAF: